sat.trackr.live / text

‹ back to catalog

STARLINK-6039

NORAD 56319 · 2023-058C

PAYLOAD ACTIVE UNKNOWN

§ Identity

Operator
Country
US
Launch date
2023-04-27
Launch site
AFWTR
Launch vehicle
Mass (kg)
RCS (m²)

Purposes: comms

External: N2YO · Heavens-Above · Gunter

§ Orbital elements

Epoch: 2026-09-20T22:00:03.000096Z

Period
94.84 min
Inclination
97.2840°
Eccentricity
0.0002791
Mean motion
15.18400363 rev/d
Perigee alt
508.8 km
Apogee alt
512.6 km
Semi-major
6,888.8 km
B*
3.6416e-3
RAAN
257.8610°
Arg perigee
88.6536°
Mean anomaly
220.4399°
Rev number
579

§ Raw data

STARLINK-60391 56319U 23058C   26263.91670139  .00075550  00000+0  36416-2 0  99902 56319  97.2840 257.8610 0002791  88.6536 220.4399 15.18400363  5791

JSON: /api/v1/satellites/56319 · /tle

For live sub-satellite position, see the globe view (requires WebGL).

§ Visibility from observer

Set your observer location to see the next 7 days of passes ≥ 10°. The values pass through the URL so the page stays shareable.

No JS? Fill the form by hand. The geolocation button needs JavaScript.